Flight Track Log - Related Links

Times and Time Zones

All times are in EDT time to prevent confusion due to time zone crossing. See the N343CW flight status page for this flight to view local times or setup timezone preferences in your user account.

Time Position Orientation Groundspeed Altitude Reporting Facility
EDT Latitude Longitude Course Direction KTS MPH feet Rate Location/Type
Tue 01:25:00 PM 40.1911 -83.2828 172° South 131 151 3,100  Level Indianapolis Center
Tue 01:25:31 PM 40.1683 -83.2786 172° South 152 175 3,800 1,290 Climbing Indianapolis Center
Tue 01:26:33 PM 40.1253 -83.2672 169° South 155 178 5,100 1,368 Climbing Indianapolis Center
Tue 01:27:25 PM 40.0864 -83.2572 169° South 157 181 6,400 1,317 Climbing Indianapolis Center
Tue 01:28:36 PM 40.0414 -83.2522 175° South 151 174 7,800 1,263 Climbing Indianapolis Center
Tue 01:29:38 PM 39.9969 -83.2481 176° South 156 180 9,200 1,306 Climbing Indianapolis Center
Tue 01:30:40 PM 39.9508 -83.2425 175° South 164 189 10,500 1,220 Climbing Indianapolis Center
Tue 01:31:41 PM 39.9033 -83.2367 175° South 169 194 11,700 1,171 Climbing Indianapolis Center
Tue 01:32:43 PM 39.8531 -83.2317 176° South 177 204 12,900 1,065 Climbing Indianapolis Center
Tue 01:33:45 PM 39.8003 -83.2261 175° South 188 216 13,900 1,073 Climbing Indianapolis Center
Tue 01:34:46 PM 39.7467 -83.2211 176° South 191 220 15,100 1,317 Climbing Indianapolis Center
Tue 01:35:48 PM 39.6844 -83.2139 175° South 185 213 16,600 1,161 Climbing Indianapolis Center
Tue 01:36:50 PM 39.6339 -83.2086 175° South 183 211 17,500 774 Climbing Indianapolis Center
Tue 01:37:52 PM 39.5792 -83.2028 175° South 194 223 18,200 732 Climbing Indianapolis Center
Tue 01:38:53 PM 39.5239 -83.1967 175° South 198 228 19,000 683 Climbing Indianapolis Center
Tue 01:39:55 PM 39.4692 -83.1908 175° South 198 228 19,600 387 Climbing Indianapolis Center
Tue 01:40:57 PM 39.4103 -83.1847 175° South 207 238 19,800 290 Climbing Indianapolis Center
Tue 01:41:59 PM 39.3469 -83.1781 175° South 221 254 20,200 488 Climbing Indianapolis Center
Tue 01:43:00 PM 39.2867 -83.1725 176° South 220 253 20,800 537 Climbing Indianapolis Center
Tue 01:44:02 PM 39.2175 -83.1647 175° South 211 243 21,300 387 Climbing Indianapolis Center
Tue 01:45:04 PM 39.1653 -83.1586 175° South 218 251 21,600 435 Climbing Indianapolis Center
Tue 01:46:06 PM 39.0906 -83.1497 175° South 223 257 22,200 537 Climbing Indianapolis Center
Tue 01:47:07 PM 39.0311 -83.1433 175° South 218 251 22,700 488 Climbing Indianapolis Center
Tue 01:48:09 PM 38.9722 -83.1378 176° South 213 245 23,200 484 Climbing Indianapolis Center
Tue 01:49:11 PM 38.9125 -83.1311 175° South 214 246 23,700 390 Climbing Indianapolis Center
Tue 01:50:12 PM 38.8536 -83.1247 175° South 214 246 24,000 146 Climbing Indianapolis Center
Tue 01:51:14 PM 38.7897 -83.1186 176° South 229 264 24,000  Level Indianapolis Center
Tue 01:52:16 PM 38.7211 -83.1114 175° South 244 281 24,000  Level Indianapolis Center
Tue 01:53:18 PM 38.6408 -83.1031 175° South 252 290 24,000  Level Indianapolis Center
Tue 01:54:20 PM 38.5678 -83.0956 175° South 261 300 24,000  Level Indianapolis Center
Tue 01:55:21 PM 38.4953 -83.0883 176° South 261 300 24,000  Level Indianapolis Center
Tue 01:56:23 PM 38.4217 -83.0803 175° South 265 305 24,000  Level Indianapolis Center
Tue 01:57:25 PM 38.3344 -83.0722 176° South 267 307 24,000  Level Indianapolis Center
Tue 01:58:27 PM 38.2597 -83.0628 174° South 270 311 24,000  Level Indianapolis Center
Tue 01:59:28 PM 38.1844 -83.0567 176° South 270 311 24,000 146 Level Indianapolis Center
Tue 02:00:30 PM 38.1092 -83.0472 174° South 271 312 24,300 532 Climbing Indianapolis Center
Tue 02:01:32 PM 38.0428 -83.0408 176° South 248 285 25,100 581 Climbing Indianapolis Center
Tue 02:02:34 PM 37.9789 -83.0358 176° South 233 268 25,500 439 Climbing Indianapolis Center
Tue 02:03:35 PM 37.9083 -83.0275 175° South 220 253 26,000 244 Climbing Indianapolis Center
Tue 02:04:37 PM 37.8442 -83.0217 176° South 226 260 26,000  Level Indianapolis Center
Tue 02:05:39 PM 37.7750 -83.0144 175° South 245 282 26,000  Level Indianapolis Center
Tue 02:06:40 PM 37.7042 -83.0064 175° South 252 290 26,000  Level Indianapolis Center
Tue 02:07:42 PM 37.6325 -83.0003 176° South 257 296 26,000  Level Indianapolis Center
Tue 02:08:44 PM 37.5603 -82.9933 176° South 259 298 26,000  Level Indianapolis Center
Tue 02:09:45 PM 37.4883 -82.9861 175° South 259 298 26,000  Level Indianapolis Center
Tue 02:10:47 PM 37.4036 -82.9772 175° South 260 299 26,000  Level Indianapolis Center
Tue 02:11:49 PM 37.3300 -82.9703 176° South 262 302 26,000  Level Indianapolis Center
Tue 02:12:50 PM 37.2561 -82.9628 175° South 265 305 26,000  Level Indianapolis Center
Tue 02:13:52 PM 37.1817 -82.9550 175° South 267 307 26,000  Level Indianapolis Center
Tue 02:14:54 PM 37.1078 -82.9481 176° South 266 306 26,000  Level Indianapolis Center
Tue 02:15:56 PM 37.0331 -82.9408 176° South 267 307 26,000  Level Indianapolis Center
Tue 02:16:57 PM 36.9486 -82.9381 178° South 268 308 26,000  Level Indianapolis Center
Tue 02:19:01 PM 36.7975 -82.9175 174° South 276 318 26,000  Level Indianapolis Center
Tue 02:20:02 PM 36.7247 -82.9094 175° South 267 307 26,000  Level Indianapolis Center
Tue 02:21:04 PM 36.6378 -82.9008 175° South 267 307 26,000  Level Indianapolis Center
Tue 02:22:06 PM 36.5639 -82.8936 176° South 266 306 26,000  Level Indianapolis Center
Tue 02:23:07 PM 36.4911 -82.8858 175° South 264 304 26,000  Level Indianapolis Center
Tue 02:24:09 PM 36.4175 -82.8792 176° South 264 304 26,000  Level Indianapolis Center
Tue 02:25:09 PM 36.3386 -82.8736 177° South 274 315 26,000  Level Atlanta Center
Tue 02:26:09 PM 36.2656 -82.8669 176° South 274 315 26,000  Level Atlanta Center
Tue 02:27:09 PM 36.1944 -82.8578 174° South 269 310 26,000  Level Atlanta Center
Tue 02:28:09 PM 36.1172 -82.8511 176° South 274 315 26,000  Level Atlanta Center
Tue 02:29:09 PM 36.0442 -82.8444 176° South 269 310 26,000  Level Atlanta Center
Tue 02:30:09 PM 35.9689 -82.8381 176° South 274 315 26,000  Level Atlanta Center
Tue 02:31:09 PM 35.8939 -82.8289 174° South 274 315 26,000  Level Atlanta Center
Tue 02:32:09 PM 35.8208 -82.8222 176° South 274 315 26,000  Level Atlanta Center
Tue 02:33:09 PM 35.7456 -82.8131 174° South 274 315 26,000 -50 Level Atlanta Center
Tue 02:34:09 PM 35.6703 -82.8067 176° South 274 315 25,900  Descending Atlanta Center
Tue 02:35:09 PM 35.5931 -82.8003 176° South 274 315 26,000 50 Climbing Atlanta Center
Tue 02:36:09 PM 35.5181 -82.7936 176° South 274 315 26,000  Level Atlanta Center
Tue 02:37:09 PM 35.4408 -82.7922 179° South 274 315 26,000  Level Atlanta Center
Tue 02:38:09 PM 35.3675 -82.7806 173° South 274 315 26,000  Level Atlanta Center
Tue 02:39:09 PM 35.2922 -82.7689 173° South 274 315 26,000  Level Atlanta Center
Tue 02:40:09 PM 35.2172 -82.7625 176° South 274 315 26,000  Level Atlanta Center
Tue 02:41:09 PM 35.1400 -82.7611 179° South 274 315 26,000  Level Atlanta Center
Tue 02:42:09 PM 35.0667 -82.7497 173° South 274 315 26,000  Level Atlanta Center
Tue 02:43:09 PM 34.9958 -82.7406 174° South 274 315 26,000  Level Atlanta Center
Tue 02:44:09 PM 34.9269 -82.7392 179° South 274 315 26,000  Level Atlanta Center
Tue 02:45:09 PM 34.8536 -82.7303 174° South 274 315 26,000  Level Atlanta Center
Tue 02:46:09 PM 34.7806 -82.7236 176° South 274 315 26,000  Level Atlanta Center
Tue 02:47:09 PM 34.7056 -82.7197 178° South 274 315 26,000 -50 Level Atlanta Center
Tue 02:48:09 PM 34.6303 -82.7083 173° South 279 321 25,900  Descending Atlanta Center
Tue 02:49:09 PM 34.5633 -82.7044 177° South 264 304 26,000  Climbing Atlanta Center
Tue 02:50:09 PM 34.4881 -82.6956 174° South 264 304 25,900  Descending Atlanta Center
Tue 02:51:09 PM 34.4108 -82.6892 176° South 259 298 26,000 50 Climbing Atlanta Center
Tue 02:52:09 PM 34.3378 -82.6828 176° South 254 292 26,000  Level Atlanta Center
Tue 02:53:09 PM 34.2689 -82.6764 176° South 261 300 26,000  Level Atlanta Center
Tue 02:54:09 PM 34.1978 -82.6700 176° South 254 292 26,000  Level Atlanta Center
Tue 02:55:09 PM 34.1247 -82.6636 176° South 259 298 26,000  Level Atlanta Center
Tue 02:56:09 PM 34.0536 -82.6547 174° South 259 298 26,000  Level Atlanta Center
Tue 02:57:09 PM 33.9825 -82.6483 176° South 259 298 26,000  Level Atlanta Center
Tue 02:58:09 PM 33.9094 -82.6422 176° South 259 298 26,000  Level Atlanta Center
Tue 02:59:09 PM 33.8467 -82.6356 175° South 259 298 26,000  Level Atlanta Center
Tue 03:00:09 PM 33.7758 -82.6317 177° South 259 298 26,000  Level Atlanta Center
Tue 03:01:09 PM 33.7047 -82.6256 176° South 259 298 26,000  Level Atlanta Center
Tue 03:02:09 PM 33.6336 -82.6192 176° South 259 298 26,000  Level Atlanta Center
Tue 03:03:09 PM 33.5625 -82.6128 176° South 253 291 26,000  Level Atlanta Center
Tue 03:04:09 PM 33.4894 -82.6067 176° South 259 298 26,000  Level Atlanta Center
Tue 03:05:09 PM 33.4122 -82.5981 175° South 259 298 26,000  Level Atlanta Center
Tue 03:06:09 PM 33.3411 -82.5917 176° South 252 290 26,000  Level Atlanta Center
Tue 03:07:09 PM 33.2764 -82.5853 175° South 262 302 26,000  Level Atlanta Center
Tue 03:08:09 PM 33.2053 -82.5814 177° South 257 296 26,000  Level Atlanta Center
Tue 03:09:09 PM 33.1342 -82.5703 173° South 257 296 26,000  Level Atlanta Center
Tue 03:10:09 PM 33.0631 -82.5642 176° South 257 296 26,000  Level Atlanta Center
Tue 03:11:09 PM 32.9922 -82.5578 176° South 257 296 26,000  Level Atlanta Center
Tue 03:12:09 PM 32.9231 -82.5514 176° South 257 296 26,000  Level Atlanta Center
Tue 03:13:09 PM 32.8522 -82.5453 176° South 257 296 26,000  Level Atlanta Center
Tue 03:14:09 PM 32.7831 -82.5392 176° South 257 296 26,000  Level Atlanta Center
Tue 03:15:09 PM 32.7142 -82.5303 174° South 257 296 26,000  Level Atlanta Center
Tue 03:16:09 PM 32.6431 -82.5267 178° South 257 296 26,000  Level Atlanta Center
Tue 03:17:09 PM 32.5722 -82.5206 176° South 257 296 26,000  Level Atlanta Center
Tue 03:18:09 PM 32.5031 -82.5144 176° South 257 296 26,000  Level Atlanta Center
Tue 03:19:09 PM 32.4322 -82.5106 177° South 257 296 26,000  Level Atlanta Center
Tue 03:20:41 PM 32.3267 -82.4967 174° South 243 280 26,000  Level Jacksonville Center
Tue 03:21:41 PM 32.2619 -82.4922 177° South 243 280 26,000  Level Jacksonville Center
Tue 03:22:41 PM 32.1908 -82.4850 175° South 243 280 26,000  Level Jacksonville Center
Tue 03:23:41 PM 32.1219 -82.4806 177° South 248 285 26,000  Level Jacksonville Center
Tue 03:24:41 PM 32.0572 -82.4733 175° South 253 291 26,000  Level Jacksonville Center
Tue 03:25:41 PM 31.9842 -82.4664 175° South 253 291 26,000  Level Jacksonville Center
Tue 03:26:41 PM 31.9153 -82.4617 177° South 253 291 26,000  Level Jacksonville Center
Tue 03:27:41 PM 31.8483 -82.4572 177° South 253 291 26,000  Level Jacksonville Center
Tue 03:28:41 PM 31.7733 -82.4453 172° South 253 291 26,000  Level Jacksonville Center
Tue 03:29:41 PM 31.7064 -82.4286 168° South 253 291 26,000  Level Jacksonville Center
Tue 03:30:41 PM 31.6394 -82.4167 171° South 253 291 26,000  Level Jacksonville Center
Tue 03:31:41 PM 31.5725 -82.4025 170° South 253 291 26,000  Level Jacksonville Center
Tue 03:32:41 PM 31.5058 -82.3833 166° South 253 291 26,000  Level Jacksonville Center
Tue 03:33:41 PM 31.4533 -82.3372 143° Southeast 243 280 26,000  Level Jacksonville Center
Tue 03:34:41 PM 31.3925 -82.2964 150° Southeast 243 280 26,000  Level Jacksonville Center
Tue 03:35:41 PM 31.3381 -82.2528 146° Southeast 243 280 26,000  Level Jacksonville Center
Tue 03:36:41 PM 31.2733 -82.2289 162° South 238 274 26,000  Level Jacksonville Center
Tue 03:37:41 PM 31.2044 -82.2294 180° South 239 275 26,000  Level Jacksonville Center
Tue 03:38:41 PM 31.1333 -82.2250 177° South 244 281 26,000  Level Jacksonville Center
Tue 03:39:41 PM 31.0622 -82.2208 177° South 254 292 26,000  Level Jacksonville Center
Tue 03:40:41 PM 30.9956 -82.2117 173° South 254 292 26,000  Level Jacksonville Center
Tue 03:41:41 PM 30.9244 -82.2047 175° South 254 292 26,000  Level Jacksonville Center
Tue 03:42:41 PM 30.8533 -82.1956 174° South 254 292 26,000  Level Jacksonville Center
Tue 03:43:41 PM 30.7825 -82.1914 177° South 254 292 26,000  Level Jacksonville Center
Tue 03:44:41 PM 30.7133 -82.1869 177° South 254 292 26,000  Level Jacksonville Center
Tue 03:45:41 PM 30.6425 -82.1778 174° South 254 292 26,000  Level Jacksonville Center
Tue 03:46:41 PM 30.5714 -82.1711 175° South 254 292 26,000  Level Jacksonville Center
Tue 03:47:41 PM 30.4983 -82.1597 172° South 254 292 26,000  Level Jacksonville Center
Tue 03:48:41 PM 30.4294 -82.1531 175° South 254 292 26,000  Level Jacksonville Center
Tue 03:49:41 PM 30.3583 -82.1464 175° South 254 292 26,000  Level Jacksonville Center
Tue 03:50:41 PM 30.2872 -82.1397 175° South 259 298 26,000  Level Jacksonville Center
Tue 03:51:41 PM 30.2161 -82.1331 175° South 254 292 26,000  Level Jacksonville Center
Tue 03:52:41 PM 30.1453 -82.1214 172° South 259 298 26,000  Level Jacksonville Center
Tue 03:53:41 PM 30.0783 -82.1078 170° South 254 292 26,000  Level Jacksonville Center
Tue 03:54:41 PM 30.0136 -82.1011 175° South 259 298 26,000  Level Jacksonville Center
Tue 03:55:41 PM 29.9444 -82.0847 168° South 259 298 26,000  Level Jacksonville Center
Tue 03:56:41 PM 29.8756 -82.0733 172° South 259 298 26,000  Level Jacksonville Center
Tue 03:57:41 PM 29.8086 -82.0597 170° South 259 298 26,000  Level Jacksonville Center
Tue 03:58:41 PM 29.7314 -82.0386 167° South 259 298 26,000  Level Jacksonville Center
Tue 03:59:41 PM 29.6644 -82.0250 170° South 259 298 26,000  Level Jacksonville Center
Tue 04:00:41 PM 29.5975 -82.0183 175° South 259 298 26,000  Level Jacksonville Center
Tue 04:01:41 PM 29.5286 -82.0047 170° South 259 298 26,000 -450 Level Jacksonville Center
Tue 04:02:41 PM 29.4553 -81.9886 169° South 259 298 25,100 -500 Descending Jacksonville Center
Tue 04:03:41 PM 29.3800 -81.9750 171° South 264 304 25,000 -50 Descending Jacksonville Center
Tue 04:04:41 PM 29.3069 -81.9614 171° South 269 310 25,000  Level Jacksonville Center
Tue 04:05:41 PM 29.2358 -81.9456 169° South 269 310 25,000  Level Jacksonville Center
Tue 04:06:41 PM 29.1544 -81.9247 167° South 276 318 25,000  Level Jacksonville Center
Tue 04:07:41 PM 29.0853 -81.9136 172° South 271 312 25,000  Level Jacksonville Center
Tue 04:08:41 PM 29.0142 -81.8978 169° South 266 306 25,000  Level Jacksonville Center
Tue 04:09:41 PM 28.9600 -81.8864 170° South 261 300 25,000  Level Jacksonville Center
Tue 04:11:54 PM 28.7958 -81.8536 170° South 254 292 25,000  Level Miami Center
Tue 04:12:54 PM 28.7253 -81.8433 173° South 254 292 25,000  Level Miami Center
Tue 04:13:54 PM 28.6525 -81.8306 171° South 259 298 25,000  Level Miami Center
Tue 04:14:54 PM 28.5822 -81.8156 169° South 259 298 25,000  Level Miami Center
Tue 04:15:54 PM 28.5119 -81.8008 170° South 259 298 25,000  Level Miami Center
Tue 04:16:54 PM 28.4436 -81.7836 168° South 259 298 25,000 -200 Level Miami Center
Tue 04:17:54 PM 28.3711 -81.7639 167° South 259 298 24,600 -496 Descending Miami Center
Tue 04:18:55 PM 28.2886 -81.7439 168° South 276 318 24,000 -298 Descending Miami Center
Tue 04:19:55 PM 28.2161 -81.7264 168° South 276 318 24,000  Level Miami Center
Tue 04:20:54 PM 28.1436 -81.7069 167° South 276 318 24,000 -403 Level Miami Center
Tue 04:21:54 PM 28.0692 -81.6894 168° South 276 318 23,200 -900 Descending Miami Center
Tue 04:22:54 PM 27.9925 -81.6722 169° South 281 323 22,200 -1,000 Descending Miami Center
Tue 04:23:54 PM 27.9181 -81.6525 167° South 281 323 21,200 -992 Descending Miami Center
Tue 04:24:55 PM 27.8414 -81.6353 169° South 281 323 20,200 -992 Descending Miami Center
Tue 04:25:55 PM 27.7689 -81.6183 168° South 276 318 19,200 -1,000 Descending Miami Center
Tue 04:26:55 PM 27.7028 -81.6014 167° South 276 318 18,200 -958 Descending Miami Center
Tue 04:27:54 PM 27.6261 -81.5842 169° South 276 318 17,300 -1,210 Descending Miami Center
Tue 04:28:54 PM 27.5456 -81.5619 166° South 276 318 15,800 -1,785 Descending Miami Center
Tue 04:29:55 PM 27.4750 -81.5453 168° South 276 318 13,700 -1,587 Descending Miami Center
Tue 04:30:55 PM 27.4044 -81.5306 170° South 276 318 12,600 -900 Descending Miami Center
Tue 04:31:55 PM 27.3403 -81.5139 167° South 265 305 11,900 -650 Descending Miami Center
Tue 04:32:55 PM 27.2781 -81.4997 169° South 241 277 11,300 -600 Descending Miami Center
Tue 04:33:55 PM 27.2181 -81.4856 168° South 236 272 10,700 -500 Descending Miami Center
Tue 04:34:55 PM 27.1561 -81.4692 167° South 236 272 10,300 -450 Descending Miami Center
Tue 04:35:55 PM 27.0981 -81.4575 170° South 231 266 9,800 -450 Descending Miami Center
Tue 04:36:55 PM 27.0378 -81.4411 166° South 231 266 9,400 -400 Descending Miami Center
Tue 04:37:55 PM 26.9778 -81.4319 172° South 226 260 9,000 -200 Descending Miami Center
Tue 04:38:55 PM 26.9303 -81.4767 220° Southwest 205 236 9,000  Level Miami Center
Tue 04:39:54 PM 26.8828 -81.5258 223° Southwest 221 254 9,000  Level Miami Center
Tue 04:40:55 PM 26.8253 -81.5608 209° Southwest 243 280 9,000  Level Miami Center
Tue 04:41:55 PM 26.7581 -81.5767 192° South 243 280 9,000 -400 Level Miami Center
Tue 04:42:55 PM 26.6969 -81.5953 195° South 255 293 8,200 -800 Descending Miami Center
Tue 04:44:00 PM 26.6246 -81.6140 193° South  Level FlightAware Approximate
Tue 04:51:00 PM 26.1656 -81.7712 197° South  Level Estimated
Tue 04:52:00 PM 26.1500 -81.7667 197° South  Level FlightAware Approximate
Tue 04:53:00 PM 26.1524 -81.7756 197° South  Level Estimated
Tue 04:54:00 PM 26.1524 -81.7756 197° South  Level Estimated
Tue 04:55:00 PM 26.1524 -81.7756 197° South  Level Estimated
Tue 04:56:00 PM 26.1524 -81.7756 197° South  Level Estimated
Tue 04:57:00 PM 26.1524 -81.7756 197° South  Level Estimated
Tue 04:58:00 PM 26.1524 -81.7756 197° South  Level Estimated
Tue 04:59:00 PM 26.1524 -81.7756 197° South  Level Estimated
Tue 05:00:00 PM 26.1524 -81.7756 197° South  Level Estimated
Tue 05:01:00 PM 26.1524 -81.7756 197° South  Level Estimated

Login

Don't have an account? Register now (free) for customized features, flight alerts, and more!